Location: downtown San Diego
(32.7310°N, 117.1990°W)
Time: 11:39:19
(UTC-07:00)

Cosmos 1140 Rocket - Pass Details

Date: 12 July 2018
Orbit: 744 x 768 km, 74.1° (Epoch: 22 September)

Event Time Altitude Azimuth Distance (km) Brightness Sun altitude
Rises 20:44:07 0° 203° (SSW) 3,169 6.6 -9.1°
Reaches altitude 10° 20:46:29 10° 207° (SSW) 2,249 5.9 -9.5°
Maximum altitude 20:51:32 63° 288° (WNW) 830 4.0 -10.4°
Drops below altitude 10° 20:56:36 10° 9° (N) 2,264 6.3 -11.3°
Sets 20:59:00 0° 13° (NNE) 3,194 7.0 -11.7°
